| time (UTC) | temp F | wind direction | speed knots | gust knots | rain 1hr in | rain 24hr in | rain mn in | humidity % | barometer mb |
| 20260902224514 | 71 | 165 | 2.6 | 7.0 | 0.01 | 0.28 | 0.28 | 91 | 1010.2 |
| 20260902223012 | 70 | 165 | 4.3 | 12.2 | 0.05 | 0.28 | 0.28 | 91 | 1010.1 |
| 20260902221517 | 70 | 13 | 0.0 | 0.9 | 0.05 | 0.28 | 0.28 | 91 | 1009.4 |
| 20260902220010 | 70 | 19 | 0.9 | 3.5 | 0.05 | 0.28 | 0.28 | 90 | 1009.3 |
| 20260902214512 | 70 | 214 | 1.7 | 6.1 | 0.04 | 0.27 | 0.27 | 89 | 1009.8 |
| 20260902213008 | 70 | 355 | 0.0 | 3.5 | 0.00 | 0.23 | 0.23 | 90 | 1009.7 |
| 20260902211506 | 70 | 327 | 0.9 | 3.5 | 0.23 | 0.23 | 0.23 | 90 | 1009.7 |
| 20260902210004 | 68 | 260 | 0.9 | 2.6 | 0.23 | 0.23 | 0.23 | 90 | 1009.6 |
| 20260902204600 | 68 | 317 | 0.9 | 4.3 | 0.23 | 0.23 | 0.23 | 89 | 1009.6 |
| 20260902203104 | 67 | 338 | 0.9 | 7.8 | 0.23 | 0.23 | 0.23 | 89 | 1009.9 |
| 20260902200021 | 85 | 281 | 4.3 | 8.7 | 0.00 | 0.00 | 0.00 | 74 | 1010.3 |
| 20260902194523 | 86 | 252 | 1.7 | 7.0 | 0.00 | 0.00 | 0.00 | 72 | 1009.5 |
| 20260902193015 | 88 | 274 | 2.6 | 8.7 | 0.00 | 0.00 | 0.00 | 71 | 1009.5 |
| 20260902191518 | 87 | 270 | 0.9 | 7.8 | 0.00 | 0.00 | 0.00 | 72 | 1009.7 |
| 20260902190012 | 86 | 267 | 0.9 | 7.8 | 0.00 | 0.00 | 0.00 | 72 | 1009.8 |
| 20260902184512 | 87 | 195 | 0.9 | 7.8 | 0.00 | 0.00 | 0.00 | 71 | 1009.8 |
| 20260902183010 | 87 | 190 | 0.9 | 4.3 | 0.00 | 0.00 | 0.00 | 69 | 1009.9 |
| 20260902181611 | 87 | 259 | 2.6 | 7.8 | 0.00 | 0.00 | 0.00 | 69 | 1010.0 |
| 20260902180008 | 86 | 199 | 2.6 | 7.0 | 0.00 | 0.00 | 0.00 | 69 | 1009.9 |
| 20260902174507 | 87 | 252 | 2.6 | 7.0 | 0.00 | 0.00 | 0.00 | 69 | 1009.9 |
| 20260902173003 | 87 | 196 | 0.9 | 8.7 | 0.00 | 0.00 | 0.00 | 72 | 1010.4 |
| 20260902171502 | 86 | 205 | 1.7 | 7.0 | 0.00 | 0.00 | 0.00 | 68 | 1010.8 |
| 20260902170059 | 86 | 144 | 2.6 | 7.0 | 0.00 | 0.00 | 0.00 | 71 | 1011.0 |
| 20260902164559 | 85 | 288 | 0.9 | 5.2 | 0.00 | 0.00 | 0.00 | 72 | 1011.5 |
| 20260902163055 | 84 | 276 | 3.5 | 7.8 | 0.00 | 0.00 | 0.00 | 70 | 1011.7 |
| 20260902161557 | 85 | 215 | 2.6 | 7.0 | 0.00 | 0.00 | 0.00 | 71 | 1011.8 |
| 20260902160055 | 84 | 311 | 4.3 | 8.7 | 0.00 | 0.00 | 0.00 | 73 | 1011.9 |
| 20260902154604 | 83 | 299 | 2.6 | 8.7 | 0.00 | 0.00 | 0.00 | 76 | 1012.1 |
| 20260902153042 | 81 | 265 | 1.7 | 7.8 | 0.00 | 0.00 | 0.00 | 79 | 1012.0 |
| 20260902151540 | 82 | 276 | 1.7 | 7.0 | 0.00 | 0.00 | 0.00 | 78 | 1011.8 |
| 20260902150037 | 83 | 308 | 2.6 | 7.8 | 0.00 | 0.00 | 0.00 | 78 | 1011.5 |
| 20260902144534 | 82 | 260 | 1.7 | 7.0 | 0.00 | 0.00 | 0.00 | 79 | 1011.4 |
| 20260902143031 | 82 | 265 | 0.9 | 7.0 | 0.00 | 0.00 | 0.00 | 79 | 1011.4 |
| 20260902141527 | 81 | 296 | 0.9 | 5.2 | 0.00 | 0.00 | 0.00 | 81 | 1011.3 |
| 20260902140023 | 80 | 230 | 0.0 | 2.6 | 0.00 | 0.00 | 0.00 | 84 | 1011.0 |
| 20260902134519 | 78 | 262 | 0.0 | 3.5 | 0.00 | 0.00 | 0.00 | 87 | 1011.3 |
| 20260902133016 | 77 | 250 | 0.9 | 4.3 | 0.00 | 0.00 | 0.00 | 88 | 1011.4 |
| 20260902131512 | 75 | 257 | 0.0 | 2.6 | 0.00 | 0.00 | 0.00 | 90 | 1011.4 |
| 20260902130008 | 75 | 252 | 0.9 | 2.6 | 0.00 | 0.00 | 0.00 | 90 | 1011.3 |
| 20260902124509 | 74 | 243 | 0.0 | 3.5 | 0.00 | 0.00 | 0.00 | 90 | 1011.1 |
| 20260902123006 | 74 | 165 | 0.0 | 3.5 | 0.00 | 0.00 | 0.00 | 91 | 1011.0 |
| 20260902121504 | 73 | 278 | 0.0 | 1.7 | 0.00 | 0.00 | 0.00 | 91 | 1010.8 |
| 20260902120002 | 73 | 281 | 0.0 | 0.9 | 0.00 | 0.00 | 0.00 | 91 | 1010.9 |
| 20260902114619 | 73 | 266 | 0.0 | 0.0 | 0.00 | 0.00 | 0.00 | 92 | 1010.9 |
| 20260902113107 | 72 | 266 | 0.0 | 0.0 | 0.00 | 0.00 | 0.00 | 92 | 1010.9 |
| 20260902111601 | 72 | 266 | 0.0 | 0.0 | 0.00 | 0.00 | 0.00 | 92 | 1011.0 |
| 20260902110055 | 71 | 266 | 0.0 | 0.0 | 0.00 | 0.00 | 0.00 | 92 | 1011.2 |
| 20260902104556 | 71 | 266 | 0.0 | 1.7 | 0.00 | 0.00 | 0.00 | 92 | 1011.0 |
| 20260902103106 | 71 | 211 | 0.0 | 0.9 | 0.00 | 0.00 | 0.00 | 92 | 1010.9 |
| 20260902101554 | 71 | 211 | 0.0 | 0.9 | 0.00 | 0.00 | 0.00 | 92 | 1010.9 |
| 20260902100119 | 72 | 211 | 0.0 | 0.0 | 0.00 | 0.00 | 0.00 | 92 | 1010.7 |
| 20260902094611 | 72 | 211 | 0.0 | 0.9 | 0.00 | 0.00 | 0.00 | 92 | 1010.8 |
| 20260902093109 | 72 | 211 | 0.0 | 0.0 | 0.00 | 0.00 | 0.00 | 92 | 1010.9 |
| 20260902091549 | 72 | 211 | 0.0 | 0.9 | 0.00 | 0.00 | 0.00 | 92 | 1010.9 |
| 20260902090049 | 73 | 211 | 0.0 | 0.0 | 0.00 | 0.00 | 0.00 | 92 | 1010.8 |
| 20260902084547 | 73 | 211 | 0.0 | 0.0 | 0.00 | 0.00 | 0.00 | 92 | 1010.9 |
| 20260902083046 | 73 | 211 | 0.0 | 0.0 | 0.00 | 0.00 | 0.00 | 91 | 1010.9 |
| 20260902081548 | 73 | 211 | 0.0 | 0.0 | 0.00 | 0.00 | 0.00 | 91 | 1010.7 |
| 20260902080045 | 73 | 211 | 0.0 | 0.9 | 0.00 | 0.00 | 0.00 | 92 | 1010.8 |
| 20260902074544 | 73 | 223 | 0.0 | 1.7 | 0.00 | 0.00 | 0.00 | 92 | 1010.8 |
| 20260902073048 | 73 | 242 | 0.0 | 1.7 | 0.00 | 0.00 | 0.00 | 92 | 1010.8 |
| 20260902071546 | 73 | 241 | 0.0 | 0.9 | 0.00 | 0.00 | 0.00 | 92 | 1010.7 |
| 20260902070041 | 73 | 226 | 0.0 | 3.5 | 0.00 | 0.00 | 0.00 | 92 | 1010.7 |
| 20260902064542 | 73 | 225 | 0.0 | 2.6 | 0.00 | 0.00 | 0.00 | 91 | 1010.9 |
| 20260902063037 | 74 | 204 | 0.9 | 3.5 | 0.00 | 0.00 | 0.00 | 91 | 1011.0 |
| 20260902061544 | 74 | 227 | 0.9 | 1.7 | 0.00 | 0.00 | 0.00 | 91 | 1011.0 |
| 20260902060045 | 74 | 227 | 0.9 | 2.6 | 0.00 | 0.00 | 0.00 | 91 | 1011.1 |
| 20260902054540 | 74 | 234 | 0.0 | 0.0 | 0.00 | 0.00 | 0.00 | 91 | 1011.3 |
| 20260902053034 | 74 | 234 | 0.0 | 0.9 | 0.00 | 0.00 | 0.00 | 91 | 1011.3 |
| 20260902051533 | 74 | 234 | 0.0 | 0.9 | 0.00 | 0.00 | 0.00 | 91 | 1011.5 |
| 20260902050038 | 74 | 234 | 0.9 | 2.6 | 0.00 | 0.00 | 0.00 | 91 | 1011.2 |
| 20260902044524 | 74 | 254 | 0.0 | 1.7 | 0.00 | 0.00 | 0.00 | 91 | 1011.2 |
| 20260902043020 | 74 | 224 | 0.0 | 1.7 | 0.00 | 0.00 | 0.00 | 91 | 1011.2 |
| 20260902041522 | 74 | 217 | 0.0 | 2.6 | 0.00 | 0.00 | 0.00 | 91 | 1011.3 |
| 20260902040014 | 74 | 225 | 0.0 | 3.5 | 0.00 | 0.00 | 0.00 | 92 | 1011.3 |
| 20260902034510 | 74 | 198 | 1.7 | 3.5 | 0.00 | 0.00 | 0.00 | 92 | 1011.0 |
| 20260902033009 | 74 | 229 | 0.9 | 3.5 | 0.00 | 0.00 | 0.00 | 92 | 1011.0 |
| 20260902031508 | 73 | 134 | 0.0 | 0.0 | 0.00 | 0.00 | 0.00 | 92 | 1011.2 |
| 20260902030009 | 73 | 134 | 0.0 | 0.0 | 0.00 | 0.00 | 0.00 | 91 | 1011.2 |
| 20260902024508 | 74 | 134 | 0.0 | 0.0 | 0.00 | 0.00 | 0.00 | 91 | 1011.2 |
| 20260902023007 | 74 | 134 | 0.0 | 1.7 | 0.00 | 0.00 | 0.00 | 91 | 1011.2 |
| 20260902021513 | 74 | 134 | 0.0 | 2.6 | 0.00 | 0.00 | 0.00 | 90 | 1011.2 |
| 20260902020006 | 74 | 134 | 1.7 | 3.5 | 0.00 | 0.00 | 0.00 | 90 | 1011.2 |
| 20260902014506 | 74 | 138 | 0.0 | 0.9 | 0.00 | 0.00 | 0.00 | 90 | 1011.3 |
| 20260902013005 | 75 | 134 | 1.7 | 3.5 | 0.00 | 0.00 | 0.00 | 89 | 1011.3 |
| 20260902011505 | 75 | 152 | 0.9 | 2.6 | 0.00 | 0.00 | 0.00 | 89 | 1011.1 |
| 20260902010012 | 75 | 103 | 0.9 | 3.5 | 0.00 | 0.00 | 0.00 | 89 | 1010.8 |
| 20260902004507 | 76 | 103 | 0.0 | 3.5 | 0.00 | 0.00 | 0.00 | 88 | 1010.8 |
| 20260902003003 | 76 | 107 | 0.9 | 2.6 | 0.00 | 0.00 | 0.00 | 88 | 1010.8 |
| 20260902001503 | 76 | 119 | 1.7 | 3.5 | 0.00 | 0.00 | 0.00 | 87 | 1010.7 |
| 20260902000004 | 78 | 127 | 1.7 | 3.5 | 0.00 | 0.00 | 0.00 | 85 | 1010.9 |
| 20260901234502 | 78 | 109 | 1.7 | 5.2 | 0.00 | 0.00 | 0.00 | 85 | 1010.9 |
| 20260901233001 | 79 | 123 | 2.6 | 6.1 | 0.00 | 0.00 | 0.00 | 84 | 1010.9 |
| 20260901231501 | 79 | 123 | 3.5 | 7.8 | 0.00 | 0.00 | 0.00 | 82 | 1011.0 |
| 20260901230114 | 80 | 98 | 5.2 | 8.7 | 0.00 | 0.00 | 0.00 | 81 | 1011.2 |